Location: Leuk
(46.3174°N, 7.6341°E)
Time: 13:51:48
(UTC+00:00)

USA 234 - Pass Details

Date: 09 March 2021
Orbit: 1102 x 1105 km, 123.0° (Epoch: 18 April)

Event Time Altitude Azimuth Distance (km) Brightness Sun altitude
Rises 02:16:42 0° 118° (ESE) 3,913 6.4 -36.2°
Reaches altitude 10° 02:19:11 10° 117° (ESE) 2,957 5.7 -35.8°
Enters shadow 02:24:15 56° 101° (E) 1,289 3.6 -35.1°
